When you browse on this site, cookies collect data to enhance your experience and personalize the content and advertising you see.
Visit our Privacy Policy to learn more. By continuing to use the site, you agree to this use of cookies and data.
  • In Netherlands
  • List of Countries
  • For 7 days
  • Water Temperature
  • Weather Map
  • Weather Widgets
  • user-avatar
    Login

    Hourly Weather Kunki

    Today, 14 October, Monday

    Time Temperature Precipitation Wind Pressure Humidity
    00:00 +8°C° 0 mm 2 mps 628 mmHg 47%
    01:00 +9°C° 0 mm 1 mps 628 mmHg 44%
    02:00 +9°C° 0 mm 1 mps 628 mmHg 41%
    03:00 +9°C° 0 mm 1 mps 628 mmHg 39%
    04:00 +9°C° 0 mm 1 mps 628 mmHg 38%
    05:00 +9°C° 0 mm 1 mps 628 mmHg 37%
    06:00 +9°C° 0 mm 1 mps 628 mmHg 35%
    07:00 +11°C° 0 mm 1 mps 629 mmHg 34%
    08:00 +14°C° 0 mm 1 mps 630 mmHg 32%
    09:00 +16°C° 0 mm 1 mps 631 mmHg 30%
    10:00 +18°C° 0 mm 1 mps 631 mmHg 31%
    11:00 +17°C° 0 mm 2 mps 631 mmHg 32%
    12:00 +18°C° 0 mm 2 mps 631 mmHg 33%
    13:00 +18°C° 0 mm 2 mps 631 mmHg 37%
    14:00 +17°C° 0 mm 2 mps 631 mmHg 40%
    15:00 +17°C° 0 mm 2 mps 631 mmHg 43%
    16:00 +15°C° 0 mm 1 mps 630 mmHg 51%
    17:00 +13°C° 0 mm 1 mps 629 mmHg 59%
    18:00 +11°C° 0 mm 1 mps 628 mmHg 67%
    19:00 +11°C° 0 mm 1 mps 628 mmHg 64%
    20:00 +11°C° 0 mm 1 mps 628 mmHg 61%
    21:00 +11°C° 0 mm 1 mps 629 mmHg 59%
    22:00 +11°C° 0 mm 1 mps 628 mmHg 55%
    23:00 +11°C° 0 mm 1 mps 628 mmHg 52%

    Tomorrow, 15 October, Tuesday

    Time Temperature Precipitation Wind Pressure Humidity
    00:00 +11°C° 0 mm 1 mps 628 mmHg 49%
    01:00 +9°C° 0 mm 2 mps 628 mmHg 45%
    02:00 +9°C° 0 mm 2 mps 627 mmHg 42%
    03:00 +9°C° 0 mm 2 mps 627 mmHg 39%
    04:00 +9°C° 0 mm 2 mps 627 mmHg 36%
    05:00 +9°C° 0 mm 2 mps 627 mmHg 33%
    06:00 +9°C° 0 mm 2 mps 626 mmHg 30%
    07:00 +13°C° 0 mm 2 mps 627 mmHg 28%
    08:00 +15°C° 0 mm 1 mps 628 mmHg 27%
    09:00 +19°C° 0 mm 1 mps 629 mmHg 25%
    10:00 +19°C° 0 mm 1 mps 629 mmHg 26%
    11:00 +20°C° 0 mm 1 mps 629 mmHg 26%
    12:00 +20°C° 0 mm 2 mps 629 mmHg 27%
    13:00 +19°C° 0 mm 2 mps 629 mmHg 30%
    14:00 +20°C° 0 mm 1 mps 628 mmHg 32%
    15:00 +20°C° 0 mm 1 mps 628 mmHg 35%
    16:00 +18°C° 0 mm 1 mps 627 mmHg 39%
    17:00 +15°C° 0 mm 1 mps 626 mmHg 44%
    18:00 +13°C° 0 mm 1 mps 625 mmHg 49%
    19:00 +13°C° 0 mm 1 mps 625 mmHg 45%
    20:00 +13°C° 0 mm 2 mps 625 mmHg 42%
    21:00 +12°C° 0 mm 2 mps 625 mmHg 38%
    22:00 +12°C° 0 mm 2 mps 625 mmHg 36%
    23:00 +12°C° 0 mm 2 mps 625 mmHg 35%

    Day after tomorrow, 16 October, Wednesday

    Time Temperature Precipitation Wind Pressure Humidity
    00:00 +12°C° 0 mm 2 mps 625 mmHg 33%
    01:00 +10°C° 0 mm 2 mps 625 mmHg 33%
    02:00 +10°C° 0 mm 2 mps 624 mmHg 33%
    03:00 +10°C° 0 mm 2 mps 624 mmHg 33%
    04:00 +10°C° 0 mm 2 mps 624 mmHg 34%
    05:00 +10°C° 0 mm 2 mps 624 mmHg 34%
    06:00 +9°C° 0 mm 2 mps 624 mmHg 34%
    07:00 +13°C° 0 mm 1 mps 625 mmHg 32%
    08:00 +15°C° 0 mm 1 mps 626 mmHg 31%
    09:00 +18°C° 0 mm 1 mps 627 mmHg 29%
    10:00 +18°C° 0 mm 1 mps 627 mmHg 29%
    11:00 +18°C° 0 mm 2 mps 627 mmHg 29%
    12:00 +19°C° 0 mm 2 mps 628 mmHg 30%
    13:00 +18°C° 0 mm 2 mps 627 mmHg 34%
    14:00 +18°C° 0 mm 2 mps 627 mmHg 39%
    15:00 +17°C° 0 mm 2 mps 627 mmHg 43%
    16:00 +15°C° 0 mm 1 mps 626 mmHg 51%
    17:00 +13°C° 0 mm 1 mps 625 mmHg 60%
    18:00 +10°C° 0 mm 0 mps 625 mmHg 68%
    19:00 +10°C° 0 mm 0 mps 625 mmHg 67%
    20:00 +10°C° 0 mm 0 mps 625 mmHg 65%
    21:00 +11°C° 0 mm 1 mps 625 mmHg 64%
    22:00 +10°C° 0 mm 1 mps 625 mmHg 63%
    23:00 +10°C° 0 mm 1 mps 625 mmHg 62%

    17 October, Thursday

    Time Temperature Precipitation Wind Pressure Humidity
    00:00 +10°C° 0 mm 1 mps 625 mmHg 61%
    01:00 +10°C° 0 mm 1 mps 625 mmHg 57%
    02:00 +10°C° 0 mm 1 mps 625 mmHg 54%
    03:00 +10°C° 0 mm 1 mps 625 mmHg 50%
    04:00 +9°C° 0 mm 1 mps 625 mmHg 46%
    05:00 +9°C° 0 mm 1 mps 625 mmHg 43%
    06:00 +9°C° 0 mm 1 mps 625 mmHg 40%
    07:00 +11°C° 0 mm 1 mps 626 mmHg 38%
    08:00 +13°C° 0 mm 1 mps 627 mmHg 36%
    09:00 +15°C° 0 mm 1 mps 628 mmHg 34%
    10:00 +16°C° 0 mm 2 mps 628 mmHg 35%
    11:00 +17°C° 0 mm 2 mps 628 mmHg 36%
    12:00 +17°C° 0 mm 2 mps 628 mmHg 37%
    13:00 +17°C° 0 mm 2 mps 627 mmHg 41%
    14:00 +16°C° 0 mm 2 mps 627 mmHg 44%
    15:00 +16°C° 0 mm 2 mps 627 mmHg 47%
    16:00 +14°C° 0 mm 2 mps 626 mmHg 53%
    17:00 +13°C° 0 mm 1 mps 625 mmHg 59%
    18:00 +11°C° 0 mm 1 mps 625 mmHg 65%
    19:00 +11°C° 0 mm 1 mps 625 mmHg 60%
    20:00 +11°C° 0 mm 1 mps 625 mmHg 56%
    21:00 +11°C° 0 mm 1 mps 625 mmHg 52%
    22:00 +10°C° 0 mm 2 mps 624 mmHg 48%
    23:00 +9°C° 0 mm 2 mps 624 mmHg 44%

    18 October, Friday

    Time Temperature Precipitation Wind Pressure Humidity
    00:00 +9°C° 0 mm 2 mps 624 mmHg 40%
    01:00 +9°C° 0 mm 2 mps 623 mmHg 40%
    02:00 +9°C° 0 mm 2 mps 623 mmHg 39%
    03:00 +9°C° 0 mm 2 mps 623 mmHg 39%
    04:00 +9°C° 0 mm 2 mps 623 mmHg 40%
    05:00 +9°C° 0 mm 2 mps 623 mmHg 42%
    06:00 +9°C° 0 mm 2 mps 623 mmHg 44%
    07:00 +12°C° 0 mm 1 mps 624 mmHg 41%
    08:00 +15°C° 0 mm 1 mps 625 mmHg 38%
    09:00 +16°C° 0 mm 0 mps 626 mmHg 35%
    10:00 +18°C° 0 mm 1 mps 626 mmHg 35%
    11:00 +18°C° 0 mm 2 mps 626 mmHg 35%
    12:00 +19°C° 0 mm 2 mps 626 mmHg 34%
    13:00 +18°C° 0 mm 2 mps 625 mmHg 37%
    14:00 +18°C° 0 mm 2 mps 625 mmHg 40%
    15:00 +17°C° 0 mm 2 mps 625 mmHg 43%
    16:00 +16°C° 0 mm 1 mps 624 mmHg 50%
    17:00 +14°C° 0 mm 1 mps 623 mmHg 57%
    18:00 +11°C° 0 mm 0 mps 623 mmHg 64%
    19:00 +12°C° 0 mm 1 mps 623 mmHg 62%
    20:00 +12°C° 0 mm 1 mps 623 mmHg 61%
    21:00 +11°C° 0 mm 1 mps 623 mmHg 60%
    22:00 +11°C° 0 mm 1 mps 623 mmHg 60%
    23:00 +11°C° 0 mm 1 mps 623 mmHg 60%

    19 October, Saturday

    Time Temperature Precipitation Wind Pressure Humidity
    00:00 +10°C° 0 mm 1 mps 623 mmHg 60%
    01:00 +10°C° 0 mm 1 mps 623 mmHg 61%
    02:00 +10°C° 0 mm 1 mps 623 mmHg 61%
    03:00 +9°C° 0 mm 0 mps 623 mmHg 62%
    04:00 +8°C° 0 mm 0 mps 623 mmHg 63%
    05:00 +8°C° 0 mm 0 mps 623 mmHg 64%
    06:00 +8°C° 0 mm 0 mps 624 mmHg 64%
    07:00 +10°C° 0 mm 1 mps 624 mmHg 63%
    08:00 +12°C° 0 mm 1 mps 625 mmHg 61%
    09:00 +13°C° 0 mm 1 mps 626 mmHg 59%
    10:00 +13°C° 0.5 mm 1 mps 626 mmHg 65%
    11:00 +12°C° 0.5 mm 1 mps 626 mmHg 71%
    12:00 +12°C° 0.5 mm 1 mps 626 mmHg 77%
    13:00 +12°C° 0.4 mm 1 mps 626 mmHg 78%
    14:00 +12°C° 0.4 mm 1 mps 625 mmHg 80%
    15:00 +12°C° 0.4 mm 1 mps 625 mmHg 81%
    16:00 +11°C° 0 mm 1 mps 625 mmHg 84%
    17:00 +10°C° 0 mm 1 mps 625 mmHg 88%
    18:00 +10°C° 0 mm 1 mps 625 mmHg 91%
    19:00 +9°C° 0 mm 1 mps 625 mmHg 91%
    20:00 +9°C° 0 mm 1 mps 625 mmHg 90%
    21:00 +9°C° 0 mm 1 mps 625 mmHg 90%
    22:00 +9°C° 0 mm 1 mps 625 mmHg 90%
    23:00 +9°C° 0 mm 1 mps 625 mmHg 90%
    Show more